When you browse on this site, cookies collect data to enhance your experience and personalize the content and advertising you see.
Visit our Privacy Policy to learn more. By continuing to use the site, you agree to this use of cookies and data.
  • In Hungary
  • List of Countries
  • For 7 days
  • Water Temperature
  • Weather Map
  • News
  • Weather Widgets
  • user-avatar
    Login

    Hourly Weather Niva

    Today, 18 August, Sunday

    Time Temperature Precipitation Wind Pressure Humidity
    00:00 +13°C° 0 mm 2 mps 758 mmHg 78%
    01:00 +13°C° 0 mm 2 mps 758 mmHg 79%
    02:00 +13°C° 0 mm 2 mps 758 mmHg 79%
    03:00 +13°C° 0 mm 2 mps 758 mmHg 79%
    04:00 +13°C° 0 mm 2 mps 758 mmHg 80%
    05:00 +12°C° 0 mm 2 mps 758 mmHg 80%
    06:00 +13°C° 0 mm 3 mps 758 mmHg 74%
    07:00 +16°C° 0 mm 3 mps 758 mmHg 68%
    08:00 +18°C° 0 mm 3 mps 758 mmHg 62%
    09:00 +19°C° 0 mm 3 mps 758 mmHg 58%
    10:00 +20°C° 0 mm 3 mps 757 mmHg 53%
    11:00 +21°C° 0 mm 3 mps 757 mmHg 49%
    12:00 +21°C° 0 mm 3 mps 757 mmHg 47%
    13:00 +21°C° 0 mm 3 mps 757 mmHg 45%
    14:00 +22°C° 0 mm 3 mps 756 mmHg 44%
    15:00 +21°C° 0 mm 3 mps 756 mmHg 45%
    16:00 +21°C° 0 mm 2 mps 756 mmHg 47%
    17:00 +21°C° 0 mm 2 mps 756 mmHg 48%
    18:00 +19°C° 0 mm 2 mps 756 mmHg 55%
    19:00 +17°C° 0 mm 2 mps 756 mmHg 62%
    20:00 +15°C° 0 mm 1 mps 755 mmHg 70%
    21:00 +15°C° 0 mm 2 mps 755 mmHg 72%
    22:00 +14°C° 0 mm 2 mps 755 mmHg 74%
    23:00 +13°C° 0 mm 3 mps 755 mmHg 77%

    Tomorrow, 19 August, Monday

    Time Temperature Precipitation Wind Pressure Humidity
    00:00 +13°C° 0 mm 3 mps 755 mmHg 82%
    01:00 +13°C° 0 mm 3 mps 755 mmHg 87%
    02:00 +13°C° 0 mm 3 mps 755 mmHg 92%
    03:00 +13°C° 0 mm 3 mps 754 mmHg 93%
    04:00 +13°C° 0 mm 3 mps 754 mmHg 94%
    05:00 +13°C° 0 mm 4 mps 754 mmHg 95%
    06:00 +14°C° 0 mm 4 mps 754 mmHg 90%
    07:00 +15°C° 0 mm 4 mps 754 mmHg 85%
    08:00 +18°C° 0 mm 4 mps 753 mmHg 79%
    09:00 +18°C° 0 mm 4 mps 753 mmHg 75%
    10:00 +19°C° 0 mm 5 mps 753 mmHg 71%
    11:00 +20°C° 0 mm 5 mps 753 mmHg 67%
    12:00 +19°C° 0 mm 5 mps 753 mmHg 70%
    13:00 +19°C° 0 mm 5 mps 753 mmHg 73%
    14:00 +17°C° 0 mm 5 mps 753 mmHg 75%
    15:00 +18°C° 0 mm 4 mps 753 mmHg 76%
    16:00 +19°C° 0 mm 4 mps 753 mmHg 76%
    17:00 +19°C° 0 mm 4 mps 753 mmHg 76%
    18:00 +18°C° 0.1 mm 3 mps 753 mmHg 81%
    19:00 +18°C° 0.1 mm 3 mps 753 mmHg 87%
    20:00 +17°C° 0.1 mm 3 mps 753 mmHg 92%
    21:00 +17°C° 0 mm 3 mps 753 mmHg 94%
    22:00 +16°C° 0 mm 3 mps 754 mmHg 96%
    23:00 +16°C° 0 mm 2 mps 754 mmHg 98%

    Day after tomorrow, 20 August, Tuesday

    Time Temperature Precipitation Wind Pressure Humidity
    00:00 +15°C° 0 mm 2 mps 754 mmHg 98%
    01:00 +15°C° 0 mm 2 mps 754 mmHg 98%
    02:00 +15°C° 0 mm 2 mps 755 mmHg 97%
    03:00 +14°C° 0 mm 2 mps 755 mmHg 97%
    04:00 +14°C° 0 mm 2 mps 755 mmHg 97%
    05:00 +14°C° 0 mm 2 mps 755 mmHg 96%
    06:00 +15°C° 0 mm 2 mps 756 mmHg 89%
    07:00 +16°C° 0 mm 2 mps 756 mmHg 81%
    08:00 +18°C° 0 mm 2 mps 756 mmHg 73%
    09:00 +19°C° 0 mm 3 mps 757 mmHg 66%
    10:00 +20°C° 0 mm 3 mps 757 mmHg 59%
    11:00 +22°C° 0 mm 3 mps 757 mmHg 52%
    12:00 +22°C° 0 mm 4 mps 757 mmHg 51%
    13:00 +23°C° 0 mm 4 mps 757 mmHg 50%
    14:00 +23°C° 0 mm 4 mps 758 mmHg 48%
    15:00 +23°C° 0.1 mm 4 mps 758 mmHg 51%
    16:00 +22°C° 0.1 mm 4 mps 758 mmHg 54%
    17:00 +22°C° 0.1 mm 5 mps 758 mmHg 57%
    18:00 +20°C° 0 mm 5 mps 758 mmHg 63%
    19:00 +18°C° 0 mm 4 mps 758 mmHg 68%
    20:00 +17°C° 0 mm 4 mps 758 mmHg 73%
    21:00 +15°C° 0 mm 4 mps 759 mmHg 76%
    22:00 +15°C° 0 mm 4 mps 759 mmHg 78%
    23:00 +14°C° 0 mm 4 mps 760 mmHg 80%

    21 August, Wednesday

    Time Temperature Precipitation Wind Pressure Humidity
    00:00 +13°C° 0 mm 4 mps 760 mmHg 84%
    01:00 +13°C° 0 mm 3 mps 760 mmHg 87%
    02:00 +12°C° 0 mm 3 mps 761 mmHg 91%
    03:00 +12°C° 0 mm 3 mps 761 mmHg 93%
    04:00 +12°C° 0 mm 3 mps 761 mmHg 95%
    05:00 +11°C° 0 mm 3 mps 761 mmHg 97%
    06:00 +13°C° 0 mm 3 mps 761 mmHg 88%
    07:00 +16°C° 0 mm 3 mps 762 mmHg 80%
    08:00 +17°C° 0 mm 3 mps 762 mmHg 71%
    09:00 +19°C° 0 mm 3 mps 762 mmHg 65%
    10:00 +20°C° 0 mm 3 mps 762 mmHg 59%
    11:00 +21°C° 0 mm 4 mps 762 mmHg 53%
    12:00 +21°C° 0 mm 4 mps 762 mmHg 52%
    13:00 +22°C° 0 mm 4 mps 762 mmHg 51%
    14:00 +22°C° 0 mm 3 mps 762 mmHg 49%
    15:00 +21°C° 0 mm 3 mps 761 mmHg 51%
    16:00 +21°C° 0 mm 3 mps 761 mmHg 54%
    17:00 +20°C° 0 mm 3 mps 761 mmHg 56%
    18:00 +19°C° 0 mm 3 mps 761 mmHg 62%
    19:00 +17°C° 0 mm 3 mps 760 mmHg 68%
    20:00 +16°C° 0 mm 2 mps 760 mmHg 75%
    21:00 +16°C° 0.1 mm 2 mps 760 mmHg 77%
    22:00 +15°C° 0.1 mm 2 mps 760 mmHg 79%
    23:00 +14°C° 0.1 mm 3 mps 760 mmHg 81%

    22 August, Thursday

    Time Temperature Precipitation Wind Pressure Humidity
    00:00 +14°C° 0.1 mm 3 mps 760 mmHg 84%
    01:00 +14°C° 0.1 mm 3 mps 760 mmHg 86%
    02:00 +14°C° 0.1 mm 3 mps 760 mmHg 89%
    03:00 +15°C° 0.2 mm 2 mps 760 mmHg 90%
    04:00 +14°C° 0.2 mm 2 mps 760 mmHg 91%
    05:00 +14°C° 0.2 mm 2 mps 760 mmHg 92%
    06:00 +15°C° 0.1 mm 2 mps 760 mmHg 89%
    07:00 +16°C° 0.1 mm 2 mps 760 mmHg 86%
    08:00 +16°C° 0.1 mm 2 mps 760 mmHg 83%
    09:00 +17°C° 0.2 mm 3 mps 760 mmHg 76%
    10:00 +18°C° 0.2 mm 3 mps 760 mmHg 69%
    11:00 +19°C° 0.2 mm 3 mps 760 mmHg 62%
    12:00 +20°C° 0 mm 3 mps 760 mmHg 56%
    13:00 +20°C° 0 mm 3 mps 760 mmHg 51%
    14:00 +21°C° 0 mm 3 mps 760 mmHg 46%
    15:00 +21°C° 0 mm 3 mps 760 mmHg 48%
    16:00 +21°C° 0 mm 3 mps 760 mmHg 50%
    17:00 +21°C° 0 mm 3 mps 760 mmHg 52%
    18:00 +19°C° 0 mm 3 mps 760 mmHg 58%
    19:00 +17°C° 0 mm 3 mps 760 mmHg 64%
    20:00 +16°C° 0 mm 2 mps 760 mmHg 70%
    21:00 +15°C° 0 mm 2 mps 761 mmHg 71%
    22:00 +14°C° 0 mm 2 mps 761 mmHg 71%
    23:00 +13°C° 0 mm 2 mps 761 mmHg 72%

    23 August, Friday

    Time Temperature Precipitation Wind Pressure Humidity
    00:00 +13°C° 0 mm 2 mps 761 mmHg 73%
    01:00 +12°C° 0 mm 2 mps 762 mmHg 75%
    02:00 +10°C° 0 mm 2 mps 762 mmHg 76%
    03:00 +10°C° 0 mm 2 mps 762 mmHg 78%
    04:00 +10°C° 0 mm 2 mps 762 mmHg 79%
    05:00 +10°C° 0 mm 1 mps 762 mmHg 81%
    06:00 +12°C° 0 mm 1 mps 762 mmHg 74%
    07:00 +14°C° 0 mm 1 mps 763 mmHg 66%
    08:00 +16°C° 0 mm 1 mps 763 mmHg 59%
    09:00 +18°C° 0 mm 1 mps 763 mmHg 54%
    10:00 +19°C° 0 mm 1 mps 763 mmHg 49%
    11:00 +20°C° 0 mm 1 mps 763 mmHg 44%
    12:00 +20°C° 0 mm 1 mps 763 mmHg 42%
    13:00 +21°C° 0 mm 1 mps 763 mmHg 41%
    14:00 +20°C° 0 mm 2 mps 763 mmHg 39%
    15:00 +21°C° 0 mm 1 mps 763 mmHg 41%
    16:00 +21°C° 0 mm 1 mps 763 mmHg 43%
    17:00 +20°C° 0 mm 1 mps 763 mmHg 44%
    18:00 +18°C° 0 mm 1 mps 763 mmHg 51%
    19:00 +15°C° 0 mm 1 mps 763 mmHg 57%
    20:00 +13°C° 0 mm 1 mps 763 mmHg 63%
    21:00 +13°C° 0 mm 1 mps 763 mmHg 65%
    22:00 +12°C° 0 mm 1 mps 764 mmHg 68%
    23:00 +12°C° 0 mm 1 mps 764 mmHg 70%
    Show more